owner,sensor,date,latitude,longitude,relative_humidity,qcFlag 
DISL,ioos:station:DISL:PPTA:1,2016-10-01T00:00:00Z,30.2791,-87.5561,51.23,1111122 
DISL,ioos:station:DISL:PPTA:1,2016-10-01T00:30:00Z,30.2791,-87.5561,56.75,1111122 
DISL,ioos:station:DISL:PPTA:1,2016-10-01T01:00:00Z,30.2791,-87.5561,54.71,1111122 
DISL,ioos:station:DISL:PPTA:1,2016-10-01T01:30:00Z,30.2791,-87.5561,56.38,1111122 
DISL,ioos:station:DISL:PPTA:1,2016-10-01T02:00:00Z,30.2791,-87.5561,57.13,1111122 
DISL,ioos:station:DISL:PPTA:1,2016-10-01T02:30:00Z,30.2791,-87.5561,60.34,1111122 
DISL,ioos:station:DISL:PPTA:1,2016-10-01T03:00:00Z,30.2791,-87.5561,57.07,1111122 
DISL,ioos:station:DISL:PPTA:1,2016-10-01T03:30:00Z,30.2791,-87.5561,62.46,1111122 
DISL,ioos:station:DISL:PPTA:1,2016-10-01T04:00:00Z,30.2791,-87.5561,61.68,1111122 
DISL,ioos:station:DISL:PPTA:1,2016-10-01T04:30:00Z,30.2791,-87.5561,55.61,1111122 
DISL,ioos:station:DISL:PPTA:1,2016-10-01T05:00:00Z,30.2791,-87.5561,61.61,1111122 
DISL,ioos:station:DISL:PPTA:1,2016-10-01T05:30:00Z,30.2791,-87.5561,57.65,1111122 
DISL,ioos:station:DISL:PPTA:1,2016-10-01T06:00:00Z,30.2791,-87.5561,60.72,1111122 
DISL,ioos:station:DISL:PPTA:1,2016-10-01T06:30:00Z,30.2791,-87.5561,64.54,1111122 
DISL,ioos:station:DISL:PPTA:1,2016-10-01T07:00:00Z,30.2791,-87.5561,66.39,1111122 
DISL,ioos:station:DISL:PPTA:1,2016-10-01T07:30:00Z,30.2791,-87.5561,72.16,1111122 
DISL,ioos:station:DISL:PPTA:1,2016-10-01T08:00:00Z,30.2791,-87.5561,69.67,1111122 
DISL,ioos:station:DISL:PPTA:1,2016-10-01T08:30:00Z,30.2791,-87.5561,76.8,1111122 
DISL,ioos:station:DISL:PPTA:1,2016-10-01T09:00:00Z,30.2791,-87.5561,78.45,1111122 
DISL,ioos:station:DISL:PPTA:1,2016-10-01T09:30:00Z,30.2791,-87.5561,77.95,1111122 
DISL,ioos:station:DISL:PPTA:1,2016-10-01T10:00:00Z,30.2791,-87.5561,75.73,1111122 
DISL,ioos:station:DISL:PPTA:1,2016-10-01T10:30:00Z,30.2791,-87.5561,74.03,1111122 
DISL,ioos:station:DISL:PPTA:1,2016-10-01T11:00:00Z,30.2791,-87.5561,75.43,1111122 
DISL,ioos:station:DISL:PPTA:1,2016-10-01T11:30:00Z,30.2791,-87.5561,74.1,1111122 
DISL,ioos:station:DISL:PPTA:1,2016-10-01T12:00:00Z,30.2791,-87.5561,72.49,1111122 
DISL,ioos:station:DISL:PPTA:1,2016-10-01T12:30:00Z,30.2791,-87.5561,67.2,1111122 
DISL,ioos:station:DISL:PPTA:1,2016-10-01T13:00:00Z,30.2791,-87.5561,62.34,1111122 
DISL,ioos:station:DISL:PPTA:1,2016-10-01T13:30:00Z,30.2791,-87.5561,62.88,1111122 
DISL,ioos:station:DISL:PPTA:1,2016-10-01T14:00:00Z,30.2791,-87.5561,59.55,1111122 
DISL,ioos:station:DISL:PPTA:1,2016-10-01T14:30:00Z,30.2791,-87.5561,54.46,1111122 
DISL,ioos:station:DISL:PPTA:1,2016-10-01T15:00:00Z,30.2791,-87.5561,49.2,1111122 
DISL,ioos:station:DISL:PPTA:1,2016-10-01T15:30:00Z,30.2791,-87.5561,43.87,1111122 
DISL,ioos:station:DISL:PPTA:1,2016-10-01T16:00:00Z,30.2791,-87.5561,42.4,1111122 
DISL,ioos:station:DISL:PPTA:1,2016-10-01T16:30:00Z,30.2791,-87.5561,44.95,1111122 
DISL,ioos:station:DISL:PPTA:1,2016-10-01T17:00:00Z,30.2791,-87.5561,42.15,1111122 
DISL,ioos:station:DISL:PPTA:1,2016-10-01T17:30:00Z,30.2791,-87.5561,45.25,1111122 
DISL,ioos:station:DISL:PPTA:1,2016-10-01T18:00:00Z,30.2791,-87.5561,42.73,1111122 
DISL,ioos:station:DISL:PPTA:1,2016-10-01T18:30:00Z,30.2791,-87.5561,41.87,1111122 
DISL,ioos:station:DISL:PPTA:1,2016-10-01T19:00:00Z,30.2791,-87.5561,49.04,1111122 
DISL,ioos:station:DISL:PPTA:1,2016-10-01T19:30:00Z,30.2791,-87.5561,45.94,1111122 
DISL,ioos:station:DISL:PPTA:1,2016-10-01T20:00:00Z,30.2791,-87.5561,45.64,1111122 
DISL,ioos:station:DISL:PPTA:1,2016-10-01T20:30:00Z,30.2791,-87.5561,46.63,1111122 
DISL,ioos:station:DISL:PPTA:1,2016-10-01T21:00:00Z,30.2791,-87.5561,43.94,1111122 
DISL,ioos:station:DISL:PPTA:1,2016-10-01T21:30:00Z,30.2791,-87.5561,46.98,1111122 
DISL,ioos:station:DISL:PPTA:1,2016-10-01T22:00:00Z,30.2791,-87.5561,44.87,1111122 
DISL,ioos:station:DISL:PPTA:1,2016-10-01T22:30:00Z,30.2791,-87.5561,47.9,1111122 
DISL,ioos:station:DISL:PPTA:1,2016-10-01T23:00:00Z,30.2791,-87.5561,48.89,1111122 
DISL,ioos:station:DISL:PPTA:1,2016-10-01T23:30:00Z,30.2791,-87.5561,50.63,1111122 
DISL,ioos:station:DISL:PPTA:1,2016-10-02T00:00:00Z,30.2791,-87.5561,50.07,1111122 
DISL,ioos:station:DISL:PPTA:1,2016-10-02T00:30:00Z,30.2791,-87.5561,52.32,1111122 
DISL,ioos:station:DISL:PPTA:1,2016-10-02T01:00:00Z,30.2791,-87.5561,53.0,1111122 
DISL,ioos:station:DISL:PPTA:1,2016-10-02T01:30:00Z,30.2791,-87.5561,61.77,1111122 
DISL,ioos:station:DISL:PPTA:1,2016-10-02T02:00:00Z,30.2791,-87.5561,61.3,1111122 
DISL,ioos:station:DISL:PPTA:1,2016-10-02T02:30:00Z,30.2791,-87.5561,63.55,1111122 
DISL,ioos:station:DISL:PPTA:1,2016-10-02T03:00:00Z,30.2791,-87.5561,69.56,1111122 
DISL,ioos:station:DISL:PPTA:1,2016-10-02T03:30:00Z,30.2791,-87.5561,77.55,1111122 
DISL,ioos:station:DISL:PPTA:1,2016-10-02T04:00:00Z,30.2791,-87.5561,78.57,1111122 
DISL,ioos:station:DISL:PPTA:1,2016-10-02T04:30:00Z,30.2791,-87.5561,75.61,1111122 
DISL,ioos:station:DISL:PPTA:1,2016-10-02T05:00:00Z,30.2791,-87.5561,77.93,1111122 
DISL,ioos:station:DISL:PPTA:1,2016-10-02T05:30:00Z,30.2791,-87.5561,76.02,1111122 
DISL,ioos:station:DISL:PPTA:1,2016-10-02T06:00:00Z,30.2791,-87.5561,76.33,1111122 
DISL,ioos:station:DISL:PPTA:1,2016-10-02T06:30:00Z,30.2791,-87.5561,79.78,1111122 
DISL,ioos:station:DISL:PPTA:1,2016-10-02T07:00:00Z,30.2791,-87.5561,85.8,1111122 
DISL,ioos:station:DISL:PPTA:1,2016-10-02T07:30:00Z,30.2791,-87.5561,83.9,1111122 
DISL,ioos:station:DISL:PPTA:1,2016-10-02T08:00:00Z,30.2791,-87.5561,76.24,1111122 
DISL,ioos:station:DISL:PPTA:1,2016-10-02T08:30:00Z,30.2791,-87.5561,75.77,1111122 
DISL,ioos:station:DISL:PPTA:1,2016-10-02T09:00:00Z,30.2791,-87.5561,72.9,1111122 
DISL,ioos:station:DISL:PPTA:1,2016-10-02T09:30:00Z,30.2791,-87.5561,74.06,1111122 
DISL,ioos:station:DISL:PPTA:1,2016-10-02T10:00:00Z,30.2791,-87.5561,77.37,1111122 
DISL,ioos:station:DISL:PPTA:1,2016-10-02T10:30:00Z,30.2791,-87.5561,75.77,1111122 
DISL,ioos:station:DISL:PPTA:1,2016-10-02T11:00:00Z,30.2791,-87.5561,73.52,1111122 
DISL,ioos:station:DISL:PPTA:1,2016-10-02T11:30:00Z,30.2791,-87.5561,74.1,1111122 
DISL,ioos:station:DISL:PPTA:1,2016-10-02T12:00:00Z,30.2791,-87.5561,75.36,1111122 
DISL,ioos:station:DISL:PPTA:1,2016-10-02T12:30:00Z,30.2791,-87.5561,73.28,1111122 
DISL,ioos:station:DISL:PPTA:1,2016-10-02T13:00:00Z,30.2791,-87.5561,72.42,1111122 
DISL,ioos:station:DISL:PPTA:1,2016-10-02T13:30:00Z,30.2791,-87.5561,68.34,1111122 
DISL,ioos:station:DISL:PPTA:1,2016-10-02T14:00:00Z,30.2791,-87.5561,69.02,1111122 
DISL,ioos:station:DISL:PPTA:1,2016-10-02T14:30:00Z,30.2791,-87.5561,70.24,1111122 
DISL,ioos:station:DISL:PPTA:1,2016-10-02T15:00:00Z,30.2791,-87.5561,69.69,1111122 
DISL,ioos:station:DISL:PPTA:1,2016-10-02T15:30:00Z,30.2791,-87.5561,63.95,1111122 
DISL,ioos:station:DISL:PPTA:1,2016-10-02T16:00:00Z,30.2791,-87.5561,62.62,1111122 
DISL,ioos:station:DISL:PPTA:1,2016-10-02T16:30:00Z,30.2791,-87.5561,54.97,1111122 
DISL,ioos:station:DISL:PPTA:1,2016-10-02T17:00:00Z,30.2791,-87.5561,55.09,1111122 
DISL,ioos:station:DISL:PPTA:1,2016-10-02T17:30:00Z,30.2791,-87.5561,50.68,1111122 
DISL,ioos:station:DISL:PPTA:1,2016-10-02T18:00:00Z,30.2791,-87.5561,47.08,1111122 
DISL,ioos:station:DISL:PPTA:1,2016-10-02T18:30:00Z,30.2791,-87.5561,45.68,1111122 
DISL,ioos:station:DISL:PPTA:1,2016-10-02T19:00:00Z,30.2791,-87.5561,45.19,1111122 
DISL,ioos:station:DISL:PPTA:1,2016-10-02T19:30:00Z,30.2791,-87.5561,46.49,1111122 
DISL,ioos:station:DISL:PPTA:1,2016-10-02T20:00:00Z,30.2791,-87.5561,52.46,1111122 
DISL,ioos:station:DISL:PPTA:1,2016-10-02T20:30:00Z,30.2791,-87.5561,47.73,1111122 
DISL,ioos:station:DISL:PPTA:1,2016-10-02T21:00:00Z,30.2791,-87.5561,46.81,1111122 
DISL,ioos:station:DISL:PPTA:1,2016-10-02T21:30:00Z,30.2791,-87.5561,43.5,1111122 
DISL,ioos:station:DISL:PPTA:1,2016-10-02T22:00:00Z,30.2791,-87.5561,47.12,1111122 
DISL,ioos:station:DISL:PPTA:1,2016-10-02T22:30:00Z,30.2791,-87.5561,50.36,1111122 
DISL,ioos:station:DISL:PPTA:1,2016-10-02T23:00:00Z,30.2791,-87.5561,55.06,1111122 
DISL,ioos:station:DISL:PPTA:1,2016-10-02T23:30:00Z,30.2791,-87.5561,55.71,1111122 
DISL,ioos:station:DISL:PPTA:1,2016-10-03T00:00:00Z,30.2791,-87.5561,58.06,1111122 
DISL,ioos:station:DISL:PPTA:1,2016-10-03T00:30:00Z,30.2791,-87.5561,57.31,1111122 
DISL,ioos:station:DISL:PPTA:1,2016-10-03T01:00:00Z,30.2791,-87.5561,61.07,1111122 
DISL,ioos:station:DISL:PPTA:1,2016-10-03T01:30:00Z,30.2791,-87.5561,60.54,1111122 
DISL,ioos:station:DISL:PPTA:1,2016-10-03T02:00:00Z,30.2791,-87.5561,63.98,1111122 
DISL,ioos:station:DISL:PPTA:1,2016-10-03T02:30:00Z,30.2791,-87.5561,62.89,1111122 
DISL,ioos:station:DISL:PPTA:1,2016-10-03T03:00:00Z,30.2791,-87.5561,65.38,1111122 
DISL,ioos:station:DISL:PPTA:1,2016-10-03T03:30:00Z,30.2791,-87.5561,67.63,1111122 
DISL,ioos:station:DISL:PPTA:1,2016-10-03T04:00:00Z,30.2791,-87.5561,68.77,1111122 
DISL,ioos:station:DISL:PPTA:1,2016-10-03T04:30:00Z,30.2791,-87.5561,70.15,1111122 
DISL,ioos:station:DISL:PPTA:1,2016-10-03T05:00:00Z,30.2791,-87.5561,70.49,1111122 
DISL,ioos:station:DISL:PPTA:1,2016-10-03T05:30:00Z,30.2791,-87.5561,71.75,1111122 
DISL,ioos:station:DISL:PPTA:1,2016-10-03T06:00:00Z,30.2791,-87.5561,72.91,1111122 
DISL,ioos:station:DISL:PPTA:1,2016-10-03T06:30:00Z,30.2791,-87.5561,68.86,1111122 
DISL,ioos:station:DISL:PPTA:1,2016-10-03T07:00:00Z,30.2791,-87.5561,68.41,1111122 
DISL,ioos:station:DISL:PPTA:1,2016-10-03T07:30:00Z,30.2791,-87.5561,71.8,1111122 
DISL,ioos:station:DISL:PPTA:1,2016-10-03T08:00:00Z,30.2791,-87.5561,73.48,1111122 
DISL,ioos:station:DISL:PPTA:1,2016-10-03T08:30:00Z,30.2791,-87.5561,74.2,1111122 
DISL,ioos:station:DISL:PPTA:1,2016-10-03T09:00:00Z,30.2791,-87.5561,73.79,1111122 
DISL,ioos:station:DISL:PPTA:1,2016-10-03T09:30:00Z,30.2791,-87.5561,76.66,1111122 
DISL,ioos:station:DISL:PPTA:1,2016-10-03T10:00:00Z,30.2791,-87.5561,74.78,1111122 
DISL,ioos:station:DISL:PPTA:1,2016-10-03T10:30:00Z,30.2791,-87.5561,72.39,1111122 
DISL,ioos:station:DISL:PPTA:1,2016-10-03T11:00:00Z,30.2791,-87.5561,69.66,1111122 
DISL,ioos:station:DISL:PPTA:1,2016-10-03T11:30:00Z,30.2791,-87.5561,70.72,1111122 
DISL,ioos:station:DISL:PPTA:1,2016-10-03T12:00:00Z,30.2791,-87.5561,72.49,1111122 
DISL,ioos:station:DISL:PPTA:1,2016-10-03T12:30:00Z,30.2791,-87.5561,71.6,1111122 
DISL,ioos:station:DISL:PPTA:1,2016-10-03T13:00:00Z,30.2791,-87.5561,68.12,1111122 
DISL,ioos:station:DISL:PPTA:1,2016-10-03T13:30:00Z,30.2791,-87.5561,61.72,1111122 
DISL,ioos:station:DISL:PPTA:1,2016-10-03T14:00:00Z,30.2791,-87.5561,60.51,1111122 
DISL,ioos:station:DISL:PPTA:1,2016-10-03T14:30:00Z,30.2791,-87.5561,57.54,1111122 
DISL,ioos:station:DISL:PPTA:1,2016-10-03T15:00:00Z,30.2791,-87.5561,52.58,1111122 
DISL,ioos:station:DISL:PPTA:1,2016-10-03T15:30:00Z,30.2791,-87.5561,58.15,1111122 
DISL,ioos:station:DISL:PPTA:1,2016-10-03T16:00:00Z,30.2791,-87.5561,48.7,1111122 
DISL,ioos:station:DISL:PPTA:1,2016-10-03T16:30:00Z,30.2791,-87.5561,48.29,1111122 
DISL,ioos:station:DISL:PPTA:1,2016-10-03T17:00:00Z,30.2791,-87.5561,46.13,1111122 
DISL,ioos:station:DISL:PPTA:1,2016-10-03T17:30:00Z,30.2791,-87.5561,49.44,1111122 
DISL,ioos:station:DISL:PPTA:1,2016-10-03T18:00:00Z,30.2791,-87.5561,48.82,1111122 
DISL,ioos:station:DISL:PPTA:1,2016-10-03T18:30:00Z,30.2791,-87.5561,49.54,1111122 
DISL,ioos:station:DISL:PPTA:1,2016-10-03T19:00:00Z,30.2791,-87.5561,45.38,1111122 
DISL,ioos:station:DISL:PPTA:1,2016-10-03T19:30:00Z,30.2791,-87.5561,47.7,1111122 
DISL,ioos:station:DISL:PPTA:1,2016-10-03T20:00:00Z,30.2791,-87.5561,49.27,1111122 
DISL,ioos:station:DISL:PPTA:1,2016-10-03T20:30:00Z,30.2791,-87.5561,47.67,1111122 
DISL,ioos:station:DISL:PPTA:1,2016-10-03T21:00:00Z,30.2791,-87.5561,45.02,1111122 
DISL,ioos:station:DISL:PPTA:1,2016-10-03T21:30:00Z,30.2791,-87.5561,46.73,1111122 
DISL,ioos:station:DISL:PPTA:1,2016-10-03T22:00:00Z,30.2791,-87.5561,42.13,1111122 
DISL,ioos:station:DISL:PPTA:1,2016-10-03T22:30:00Z,30.2791,-87.5561,46.28,1111122 
DISL,ioos:station:DISL:PPTA:1,2016-10-03T23:00:00Z,30.2791,-87.5561,47.44,1111122 
DISL,ioos:station:DISL:PPTA:1,2016-10-03T23:30:00Z,30.2791,-87.5561,46.66,1111122 
DISL,ioos:station:DISL:PPTA:1,2016-10-04T00:00:00Z,30.2791,-87.5561,49.05,1111122 
DISL,ioos:station:DISL:PPTA:1,2016-10-04T00:30:00Z,30.2791,-87.5561,51.65,1111122 
DISL,ioos:station:DISL:PPTA:1,2016-10-04T01:00:00Z,30.2791,-87.5561,69.14,1111122 
DISL,ioos:station:DISL:PPTA:1,2016-10-04T01:30:00Z,30.2791,-87.5561,66.15,1111122 
DISL,ioos:station:DISL:PPTA:1,2016-10-04T02:00:00Z,30.2791,-87.5561,74.56,1111122 
DISL,ioos:station:DISL:PPTA:1,2016-10-04T02:30:00Z,30.2791,-87.5561,78.1,1111122 
DISL,ioos:station:DISL:PPTA:1,2016-10-04T03:00:00Z,30.2791,-87.5561,79.88,1111122 
DISL,ioos:station:DISL:PPTA:1,2016-10-04T03:30:00Z,30.2791,-87.5561,75.85,1111122 
DISL,ioos:station:DISL:PPTA:1,2016-10-04T04:00:00Z,30.2791,-87.5561,73.91,1111122 
DISL,ioos:station:DISL:PPTA:1,2016-10-04T04:30:00Z,30.2791,-87.5561,75.48,1111122 
DISL,ioos:station:DISL:PPTA:1,2016-10-04T05:00:00Z,30.2791,-87.5561,75.24,1111122 
DISL,ioos:station:DISL:PPTA:1,2016-10-04T05:30:00Z,30.2791,-87.5561,75.94,1111122 
DISL,ioos:station:DISL:PPTA:1,2016-10-04T06:00:00Z,30.2791,-87.5561,77.1,1111122 
DISL,ioos:station:DISL:PPTA:1,2016-10-04T06:30:00Z,30.2791,-87.5561,73.92,1111122 
DISL,ioos:station:DISL:PPTA:1,2016-10-04T07:00:00Z,30.2791,-87.5561,74.24,1111122 
DISL,ioos:station:DISL:PPTA:1,2016-10-04T07:30:00Z,30.2791,-87.5561,76.01,1111122 
DISL,ioos:station:DISL:PPTA:1,2016-10-04T08:00:00Z,30.2791,-87.5561,76.8,1111122 
DISL,ioos:station:DISL:PPTA:1,2016-10-04T08:30:00Z,30.2791,-87.5561,77.76,1111122 
DISL,ioos:station:DISL:PPTA:1,2016-10-04T09:00:00Z,30.2791,-87.5561,76.01,1111122 
DISL,ioos:station:DISL:PPTA:1,2016-10-04T09:30:00Z,30.2791,-87.5561,77.79,1111122 
DISL,ioos:station:DISL:PPTA:1,2016-10-04T10:00:00Z,30.2791,-87.5561,75.81,1111122 
DISL,ioos:station:DISL:PPTA:1,2016-10-04T10:30:00Z,30.2791,-87.5561,77.99,1111122 
DISL,ioos:station:DISL:PPTA:1,2016-10-04T11:00:00Z,30.2791,-87.5561,76.19,1111122 
DISL,ioos:station:DISL:PPTA:1,2016-10-04T11:30:00Z,30.2791,-87.5561,81.2,1111122 
DISL,ioos:station:DISL:PPTA:1,2016-10-04T12:00:00Z,30.2791,-87.5561,74.04,1111122 
DISL,ioos:station:DISL:PPTA:1,2016-10-04T12:30:00Z,30.2791,-87.5561,75.35,1111122 
DISL,ioos:station:DISL:PPTA:1,2016-10-04T13:00:00Z,30.2791,-87.5561,75.72,1111122 
DISL,ioos:station:DISL:PPTA:1,2016-10-04T13:30:00Z,30.2791,-87.5561,76.69,1111122 
DISL,ioos:station:DISL:PPTA:1,2016-10-04T14:00:00Z,30.2791,-87.5561,80.0,1111122 
DISL,ioos:station:DISL:PPTA:1,2016-10-04T14:30:00Z,30.2791,-87.5561,83.5,1111122 
DISL,ioos:station:DISL:PPTA:1,2016-10-04T15:00:00Z,30.2791,-87.5561,84.6,1111122 
DISL,ioos:station:DISL:PPTA:1,2016-10-04T15:30:00Z,30.2791,-87.5561,82.4,1111122 
DISL,ioos:station:DISL:PPTA:1,2016-10-04T16:00:00Z,30.2791,-87.5561,82.1,1111122 
DISL,ioos:station:DISL:PPTA:1,2016-10-04T16:30:00Z,30.2791,-87.5561,81.5,1111122 
DISL,ioos:station:DISL:PPTA:1,2016-10-04T17:00:00Z,30.2791,-87.5561,79.17,1111122 
DISL,ioos:station:DISL:PPTA:1,2016-10-04T17:30:00Z,30.2791,-87.5561,78.23,1111122 
DISL,ioos:station:DISL:PPTA:1,2016-10-04T18:00:00Z,30.2791,-87.5561,77.92,1111122 
DISL,ioos:station:DISL:PPTA:1,2016-10-04T18:30:00Z,30.2791,-87.5561,70.09,1111122 
DISL,ioos:station:DISL:PPTA:1,2016-10-04T19:00:00Z,30.2791,-87.5561,71.08,1111122 
DISL,ioos:station:DISL:PPTA:1,2016-10-04T19:30:00Z,30.2791,-87.5561,68.63,1111122 
DISL,ioos:station:DISL:PPTA:1,2016-10-04T20:00:00Z,30.2791,-87.5561,67.59,1111122 
DISL,ioos:station:DISL:PPTA:1,2016-10-04T20:30:00Z,30.2791,-87.5561,65.92,1111122 
DISL,ioos:station:DISL:PPTA:1,2016-10-04T21:00:00Z,30.2791,-87.5561,64.38,1111122 
DISL,ioos:station:DISL:PPTA:1,2016-10-04T21:30:00Z,30.2791,-87.5561,63.39,1111122 
DISL,ioos:station:DISL:PPTA:1,2016-10-04T22:00:00Z,30.2791,-87.5561,65.17,1111122 
DISL,ioos:station:DISL:PPTA:1,2016-10-04T22:30:00Z,30.2791,-87.5561,66.56,1111122 
DISL,ioos:station:DISL:PPTA:1,2016-10-04T23:00:00Z,30.2791,-87.5561,68.71,1111122 
DISL,ioos:station:DISL:PPTA:1,2016-10-04T23:30:00Z,30.2791,-87.5561,72.32,1111122 
DISL,ioos:station:DISL:PPTA:1,2016-10-05T00:00:00Z,30.2791,-87.5561,71.75,1111122 
DISL,ioos:station:DISL:PPTA:1,2016-10-05T00:30:00Z,30.2791,-87.5561,71.06,1111122 
DISL,ioos:station:DISL:PPTA:1,2016-10-05T01:00:00Z,30.2791,-87.5561,72.24,1111122 
DISL,ioos:station:DISL:PPTA:1,2016-10-05T01:30:00Z,30.2791,-87.5561,73.26,1111122 
DISL,ioos:station:DISL:PPTA:1,2016-10-05T02:00:00Z,30.2791,-87.5561,73.61,1111122 
DISL,ioos:station:DISL:PPTA:1,2016-10-05T02:30:00Z,30.2791,-87.5561,79.99,1111122 
DISL,ioos:station:DISL:PPTA:1,2016-10-05T03:00:00Z,30.2791,-87.5561,85.0,1111122 
DISL,ioos:station:DISL:PPTA:1,2016-10-05T03:30:00Z,30.2791,-87.5561,86.2,1111122 
DISL,ioos:station:DISL:PPTA:1,2016-10-05T04:00:00Z,30.2791,-87.5561,87.3,1111122 
DISL,ioos:station:DISL:PPTA:1,2016-10-05T04:30:00Z,30.2791,-87.5561,85.2,1111122 
DISL,ioos:station:DISL:PPTA:1,2016-10-05T05:00:00Z,30.2791,-87.5561,84.8,1111122 
DISL,ioos:station:DISL:PPTA:1,2016-10-05T05:30:00Z,30.2791,-87.5561,76.82,1111122 
DISL,ioos:station:DISL:PPTA:1,2016-10-05T06:00:00Z,30.2791,-87.5561,73.52,1111122 
DISL,ioos:station:DISL:PPTA:1,2016-10-05T06:30:00Z,30.2791,-87.5561,77.87,1111122 
DISL,ioos:station:DISL:PPTA:1,2016-10-05T07:00:00Z,30.2791,-87.5561,72.25,1111122 
DISL,ioos:station:DISL:PPTA:1,2016-10-05T07:30:00Z,30.2791,-87.5561,72.96,1111122 
DISL,ioos:station:DISL:PPTA:1,2016-10-05T08:00:00Z,30.2791,-87.5561,72.62,1111122 
DISL,ioos:station:DISL:PPTA:1,2016-10-05T08:30:00Z,30.2791,-87.5561,71.02,1111122 
DISL,ioos:station:DISL:PPTA:1,2016-10-05T09:00:00Z,30.2791,-87.5561,71.05,1111122 
DISL,ioos:station:DISL:PPTA:1,2016-10-05T09:30:00Z,30.2791,-87.5561,70.78,1111122 
DISL,ioos:station:DISL:PPTA:1,2016-10-05T10:00:00Z,30.2791,-87.5561,72.59,1111122 
DISL,ioos:station:DISL:PPTA:1,2016-10-05T10:30:00Z,30.2791,-87.5561,72.93,1111122 
DISL,ioos:station:DISL:PPTA:1,2016-10-05T11:00:00Z,30.2791,-87.5561,73.39,1111122 
DISL,ioos:station:DISL:PPTA:1,2016-10-05T11:30:00Z,30.2791,-87.5561,72.89,1111122 
DISL,ioos:station:DISL:PPTA:1,2016-10-05T12:00:00Z,30.2791,-87.5561,71.93,1111122 
DISL,ioos:station:DISL:PPTA:1,2016-10-05T12:30:00Z,30.2791,-87.5561,70.29,1111122 
DISL,ioos:station:DISL:PPTA:1,2016-10-05T13:00:00Z,30.2791,-87.5561,67.94,1111122 
DISL,ioos:station:DISL:PPTA:1,2016-10-05T13:30:00Z,30.2791,-87.5561,68.62,1111122 
DISL,ioos:station:DISL:PPTA:1,2016-10-05T14:00:00Z,30.2791,-87.5561,67.8,1111122 
DISL,ioos:station:DISL:PPTA:1,2016-10-05T14:30:00Z,30.2791,-87.5561,66.22,1111122 
DISL,ioos:station:DISL:PPTA:1,2016-10-05T15:00:00Z,30.2791,-87.5561,66.21,1111122 
DISL,ioos:station:DISL:PPTA:1,2016-10-05T15:30:00Z,30.2791,-87.5561,66.68,1111122 
DISL,ioos:station:DISL:PPTA:1,2016-10-05T16:00:00Z,30.2791,-87.5561,67.83,1111122 
DISL,ioos:station:DISL:PPTA:1,2016-10-05T16:30:00Z,30.2791,-87.5561,66.46,1111122 
DISL,ioos:station:DISL:PPTA:1,2016-10-05T17:00:00Z,30.2791,-87.5561,65.27,1111122 
DISL,ioos:station:DISL:PPTA:1,2016-10-05T17:30:00Z,30.2791,-87.5561,65.51,1111122 
DISL,ioos:station:DISL:PPTA:1,2016-10-05T18:00:00Z,30.2791,-87.5561,64.17,1111122 
DISL,ioos:station:DISL:PPTA:1,2016-10-05T18:30:00Z,30.2791,-87.5561,61.37,1111122 
DISL,ioos:station:DISL:PPTA:1,2016-10-05T19:00:00Z,30.2791,-87.5561,60.72,1111122 
DISL,ioos:station:DISL:PPTA:1,2016-10-05T19:30:00Z,30.2791,-87.5561,59.5,1111122 
DISL,ioos:station:DISL:PPTA:1,2016-10-05T20:00:00Z,30.2791,-87.5561,59.33,1111122 
DISL,ioos:station:DISL:PPTA:1,2016-10-05T20:30:00Z,30.2791,-87.5561,60.26,1111122 
DISL,ioos:station:DISL:PPTA:1,2016-10-05T21:00:00Z,30.2791,-87.5561,58.83,1111122 
DISL,ioos:station:DISL:PPTA:1,2016-10-05T21:30:00Z,30.2791,-87.5561,57.81,1111122 
DISL,ioos:station:DISL:PPTA:1,2016-10-05T22:00:00Z,30.2791,-87.5561,56.71,1111122 
DISL,ioos:station:DISL:PPTA:1,2016-10-05T22:30:00Z,30.2791,-87.5561,59.75,1111122 
DISL,ioos:station:DISL:PPTA:1,2016-10-05T23:00:00Z,30.2791,-87.5561,59.85,1111122 
DISL,ioos:station:DISL:PPTA:1,2016-10-05T23:30:00Z,30.2791,-87.5561,63.97,1111122 
DISL,ioos:station:DISL:PPTA:1,2016-10-06T00:00:00Z,30.2791,-87.5561,64.96,1111122 
DISL,ioos:station:DISL:PPTA:1,2016-10-06T00:30:00Z,30.2791,-87.5561,59.11,1111122 
DISL,ioos:station:DISL:PPTA:1,2016-10-06T01:00:00Z,30.2791,-87.5561,63.03,1111122 
DISL,ioos:station:DISL:PPTA:1,2016-10-06T01:30:00Z,30.2791,-87.5561,64.3,1111122 
DISL,ioos:station:DISL:PPTA:1,2016-10-06T02:00:00Z,30.2791,-87.5561,66.14,1111122 
DISL,ioos:station:DISL:PPTA:1,2016-10-06T02:30:00Z,30.2791,-87.5561,63.59,1111122 
DISL,ioos:station:DISL:PPTA:1,2016-10-06T03:00:00Z,30.2791,-87.5561,63.52,1111122 
DISL,ioos:station:DISL:PPTA:1,2016-10-06T03:30:00Z,30.2791,-87.5561,62.8,1111122 
DISL,ioos:station:DISL:PPTA:1,2016-10-06T04:00:00Z,30.2791,-87.5561,66.32,1111122 
DISL,ioos:station:DISL:PPTA:1,2016-10-06T04:30:00Z,30.2791,-87.5561,65.06,1111122 
DISL,ioos:station:DISL:PPTA:1,2016-10-06T05:00:00Z,30.2791,-87.5561,64.03,1111122 
DISL,ioos:station:DISL:PPTA:1,2016-10-06T05:30:00Z,30.2791,-87.5561,68.02,1111122 
DISL,ioos:station:DISL:PPTA:1,2016-10-06T06:00:00Z,30.2791,-87.5561,70.51,1111122 
DISL,ioos:station:DISL:PPTA:1,2016-10-06T06:30:00Z,30.2791,-87.5561,69.69,1111122 
DISL,ioos:station:DISL:PPTA:1,2016-10-06T07:00:00Z,30.2791,-87.5561,70.71,1111122 
DISL,ioos:station:DISL:PPTA:1,2016-10-06T07:30:00Z,30.2791,-87.5561,71.46,1111122 
DISL,ioos:station:DISL:PPTA:1,2016-10-06T08:00:00Z,30.2791,-87.5561,72.05,1111122 
DISL,ioos:station:DISL:PPTA:1,2016-10-06T08:30:00Z,30.2791,-87.5561,70.53,1111122 
DISL,ioos:station:DISL:PPTA:1,2016-10-06T09:00:00Z,30.2791,-87.5561,73.81,1111122 
DISL,ioos:station:DISL:PPTA:1,2016-10-06T09:30:00Z,30.2791,-87.5561,76.67,1111122 
DISL,ioos:station:DISL:PPTA:1,2016-10-06T10:00:00Z,30.2791,-87.5561,78.27,1111122 
DISL,ioos:station:DISL:PPTA:1,2016-10-06T10:30:00Z,30.2791,-87.5561,79.74,1111122 
DISL,ioos:station:DISL:PPTA:1,2016-10-06T11:00:00Z,30.2791,-87.5561,79.74,1111122 
DISL,ioos:station:DISL:PPTA:1,2016-10-06T11:30:00Z,30.2791,-87.5561,79.88,1111122 
DISL,ioos:station:DISL:PPTA:1,2016-10-06T12:00:00Z,30.2791,-87.5561,82.9,1111122 
DISL,ioos:station:DISL:PPTA:1,2016-10-06T12:30:00Z,30.2791,-87.5561,81.7,1111122 
DISL,ioos:station:DISL:PPTA:1,2016-10-06T13:00:00Z,30.2791,-87.5561,81.0,1111122 
DISL,ioos:station:DISL:PPTA:1,2016-10-06T13:30:00Z,30.2791,-87.5561,81.0,1111122 
DISL,ioos:station:DISL:PPTA:1,2016-10-06T14:00:00Z,30.2791,-87.5561,79.71,1111122 
DISL,ioos:station:DISL:PPTA:1,2016-10-06T14:30:00Z,30.2791,-87.5561,78.99,1111122 
DISL,ioos:station:DISL:PPTA:1,2016-10-06T15:00:00Z,30.2791,-87.5561,76.6,1111122 
DISL,ioos:station:DISL:PPTA:1,2016-10-06T15:30:00Z,30.2791,-87.5561,75.31,1111122 
DISL,ioos:station:DISL:PPTA:1,2016-10-06T16:00:00Z,30.2791,-87.5561,73.79,1111122 
DISL,ioos:station:DISL:PPTA:1,2016-10-06T16:30:00Z,30.2791,-87.5561,74.12,1111122 
DISL,ioos:station:DISL:PPTA:1,2016-10-06T17:00:00Z,30.2791,-87.5561,72.84,1111122 
DISL,ioos:station:DISL:PPTA:1,2016-10-06T17:30:00Z,30.2791,-87.5561,70.08,1111122 
DISL,ioos:station:DISL:PPTA:1,2016-10-06T18:00:00Z,30.2791,-87.5561,69.36,1111122 
DISL,ioos:station:DISL:PPTA:1,2016-10-06T18:30:00Z,30.2791,-87.5561,69.9,1111122 
DISL,ioos:station:DISL:PPTA:1,2016-10-06T19:00:00Z,30.2791,-87.5561,69.39,1111122 
DISL,ioos:station:DISL:PPTA:1,2016-10-06T19:30:00Z,30.2791,-87.5561,74.03,1111122 
DISL,ioos:station:DISL:PPTA:1,2016-10-06T20:00:00Z,30.2791,-87.5561,73.48,1111122 
DISL,ioos:station:DISL:PPTA:1,2016-10-06T20:30:00Z,30.2791,-87.5561,72.05,1111122 
DISL,ioos:station:DISL:PPTA:1,2016-10-06T21:00:00Z,30.2791,-87.5561,68.03,1111122 
DISL,ioos:station:DISL:PPTA:1,2016-10-06T21:30:00Z,30.2791,-87.5561,67.89,1111122 
DISL,ioos:station:DISL:PPTA:1,2016-10-06T22:00:00Z,30.2791,-87.5561,66.91,1111122 
DISL,ioos:station:DISL:PPTA:1,2016-10-06T22:30:00Z,30.2791,-87.5561,68.98,1111122 
DISL,ioos:station:DISL:PPTA:1,2016-10-06T23:00:00Z,30.2791,-87.5561,71.75,1111122 
DISL,ioos:station:DISL:PPTA:1,2016-10-06T23:30:00Z,30.2791,-87.5561,71.64,1111122 